FW3211 Weather Reports


Display with metric or nautical units.
time (UTC)temp
F
wind
direction
speed
MPH
gust
MPH
rain 1hr
in
rain 24hr
in
rain mn
in
humidity
%
barometer
mb
20260502164318 62 343 2.0 5.0 0.00 0.00 0.00 51 1023.0
20260502163316 62 308 2.0 6.0 0.00 0.00 0.00 49 1023.2
20260502162816 62 65 2.0 5.0 0.00 0.00 0.00 50 1023.2
20260502162317 62 20 2.0 4.0 0.00 0.00 0.00 50 1023.2
20260502161814 62 12 2.0 6.0 0.00 0.00 0.00 50 1023.3
20260502161312 62 60 2.0 6.0 0.00 0.00 0.00 48 1023.3
20260502160811 62 287 2.0 4.0 0.00 0.00 0.00 50 1023.3
20260502160309 62 316 2.0 4.0 0.00 0.00 0.00 49 1023.4
20260502152307 64 79 1.0 5.0 0.00 0.00 0.00 46 1023.7
20260502151806 64 85 2.0 5.0 0.00 0.00 0.00 45 1023.7
20260502151622 64 68 1.0 4.0 0.00 0.00 0.00 45 1023.8
20260502150808 64 161 1.0 4.0 0.00 0.00 0.00 47 1023.8
20260502150311 65 162 2.0 6.0 0.00 0.00 0.00 47 1023.9
20260502130303 66 217 5.0 11.0 0.00 0.00 0.00 44 1025.0
20260502123803 67 209 4.0 9.0 0.00 0.00 0.00 43 1025.2
20260502123306 67 179 4.0 9.0 0.00 0.00 0.00 43 1025.2
20260502122805 67 158 4.0 9.0 0.00 0.00 0.00 43 1025.3
20260502122306 67 111 4.0 10.0 0.00 0.00 0.00 42 1025.3
20260502121806 67 200 4.0 10.0 0.00 0.00 0.00 42 1025.4
20260502121303 67 113 4.0 9.0 0.00 0.00 0.00 42 1025.3
20260502121108 66 163 4.0 9.0 0.00 0.00 0.00 43 1025.4
20260502120545 66 79 4.0 8.0 0.00 0.00 0.00 43 1025.4
20260502115807 66 135 3.0 8.0 0.00 0.00 0.00 42 1025.5
20260502115306 66 120 4.0 10.0 0.00 0.00 0.00 42 1025.5
20260502114803 66 73 4.0 10.0 0.00 0.00 0.00 43 1025.5
20260502114559 66 117 5.0 12.0 0.00 0.00 0.00 42 1025.6
20260502113804 66 112 6.0 12.0 0.00 0.00 0.00 42 1025.7
20260502113307 65 148 6.0 13.0 0.00 0.00 0.00 41 1025.6
20260502113045 66 190 6.0 13.0 0.00 0.00 0.00 42 1025.8
20260502112305 66 204 5.0 12.0 0.00 0.00 0.00 42 1025.8
20260502111804 67 157 4.0 10.0 0.00 0.00 0.00 41 1025.9
20260502111303 67 183 4.0 10.0 0.00 0.00 0.00 41 1025.9
20260502110800 67 121 4.0 10.0 0.00 0.00 0.00 41 1026.0
20260502110300 67 166 3.0 9.0 0.00 0.00 0.00 41 1026.0
20260502105800 67 109 3.0 9.0 0.00 0.00 0.00 40 1026.1
20260502105300 67 200 4.0 9.0 0.00 0.00 0.00 40 1026.2
20260502104803 66 109 4.0 9.0 0.00 0.00 0.00 40 1026.3
20260502104300 66 34 3.0 9.0 0.00 0.00 0.00 41 1026.3
20260502103800 66 83 3.0 9.0 0.00 0.00 0.00 40 1026.4
20260502103301 66 81 3.0 10.0 0.00 0.00 0.00 39 1026.5
20260502102756 66 108 3.0 10.0 0.00 0.00 0.00 40 1026.4
20260502102256 66 79 3.0 9.0 0.00 0.00 0.00 39 1026.5
20260502101759 66 74 3.0 9.0 0.00 0.00 0.00 41 1026.6
20260502101544 66 108 2.0 7.0 0.00 0.00 0.00 42 1026.6
20260502100757 65 124 3.0 10.0 0.00 0.00 0.00 41 1026.7
20260502100256 66 115 4.0 10.0 0.00 0.00 0.00 40 1026.7
20260502091250 65 130 4.0 11.0 0.00 0.00 0.00 42 1027.3
20260502090750 65 48 3.0 13.0 0.00 0.00 0.00 43 1027.2
20260502090251 66 58 2.0 13.0 0.00 0.00 0.00 40 1027.3
20260502071220 63 145 2.0 4.0 0.00 0.00 0.00 50 1027.3
20260502070718 63 116 2.0 4.0 0.00 0.00 0.00 54 1027.3
20260502070217 62 120 2.0 4.0 0.00 0.00 0.00 49 1027.3
20260502065717 62 127 2.0 3.0 0.00 0.00 0.00 55 1027.4
20260502065216 62 141 2.0 3.0 0.00 0.00 0.00 53 1027.3
20260502064716 63 141 1.0 4.0 0.00 0.00 0.00 53 1027.4
20260502064215 62 143 1.0 4.0 0.00 0.00 0.00 51 1027.3
20260502063715 62 105 1.0 4.0 0.00 0.00 0.00 52 1027.4
20260502063216 62 102 2.0 4.0 0.00 0.00 0.00 50 1027.4
20260502063004 61 102 2.0 4.0 0.00 0.00 0.00 51 1027.4
20260502062306 61 108 2.0 6.0 0.00 0.00 0.00 52 1027.3
20260502062244 61 123 2.0 6.0 0.00 0.00 0.00 53 1027.4
20260502061214 61 131 1.0 4.0 0.00 0.00 0.00 49 1027.3
20260502060716 61 143 1.0 3.0 0.00 0.00 0.00 51 1027.3
20260502060212 61 143 1.0 3.0 0.00 0.00 0.00 51 1027.4
20260502055710 61 183 1.0 2.0 0.00 0.00 0.00 52 1027.4
20260502055208 61 183 1.0 2.0 0.00 0.00 0.00 55 1027.4
20260502054707 61 183 1.0 2.0 0.00 0.00 0.00 53 1027.5
20260502054208 61 183 1.0 2.0 0.00 0.00 0.00 54 1027.5
20260502053948 61 183 1.0 2.0 0.00 0.00 0.00 51 1027.4
20260502053207 61 183 1.0 2.0 0.00 0.00 0.00 50 1027.4
20260502053017 61 184 0.0 2.0 0.00 0.00 0.00 49 1027.4
20260502052440 61 184 0.0 2.0 0.00 0.00 0.00 51 1027.3
20260502051705 61 184 0.0 1.0 0.00 0.00 0.00 51 1027.3
20260502051204 60 278 0.0 1.0 0.00 0.00 0.00 52 1027.3
20260502050705 59 278 0.0 1.0 0.00 0.00 0.00 51 1027.3
20260502050205 58 278 0.0 1.0 0.00 0.00 0.00 53 1027.3
20260502045701 57 278 0.0 1.0 0.00 0.00 0.00 54 1027.3
20260502045154 56 278 1.0 3.0 0.00 0.00 0.00 54 1027.2
20260502044648 55 278 1.0 3.0 0.00 0.00 0.00 57 1027.2
20260502044137 54 323 2.0 4.0 0.00 0.00 0.00 57 1027.2
20260502043733 54 339 2.0 3.0 0.00 0.00 0.00 57 1027.3
20260502043656 54 302 2.0 4.0 0.00 0.00 0.00 57 1027.3
20260502042635 54 339 2.0 3.0 0.00 0.00 0.00 57 1027.2
20260502042132 54 333 2.0 3.0 0.00 0.00 0.00 57 1027.3
20260502041712 55 349 2.0 3.0 0.00 0.00 0.00 57 1027.3
20260502041655 55 350 2.0 3.0 0.00 0.00 0.00 56 1027.3
20260502040633 55 349 2.0 3.0 0.00 0.00 0.00 56 1027.3
20260502040133 55 335 2.0 3.0 0.00 0.00 0.00 56 1027.2
20260502035633 55 335 2.0 3.0 0.00 0.00 0.00 57 1027.2
20260502035135 55 333 2.0 3.0 0.00 0.00 0.00 57 1027.2
20260502034632 55 330 2.0 3.0 0.00 0.00 0.00 56 1027.2
20260502034134 55 354 2.0 3.0 0.00 0.00 0.00 57 1027.0
20260502033636 55 335 2.0 3.0 0.00 0.00 0.00 58 1027.0
20260502033141 55 335 2.0 3.0 0.00 0.00 0.00 59 1026.9
20260502032635 55 324 2.0 3.0 0.00 0.00 0.00 59 1027.0
20260502032409 55 324 2.0 3.0 0.00 0.00 0.00 60 1027.0
20260502031646 55 322 2.0 3.0 0.00 0.00 0.00 60 1027.0
20260502031409 55 321 2.0 3.0 0.00 0.00 0.00 58 1027.2
20260502030632 55 315 2.0 3.0 0.00 0.00 0.00 59 1027.2
20260502030432 55 333 2.0 3.0 0.00 0.00 0.00 59 1027.2
20260502025917 55 341 2.0 4.0 0.00 0.00 0.00 60 1027.2
20260502025129 55 16 2.0 4.0 0.00 0.00 0.00 58 1027.0
20260502024630 55 343 2.0 3.0 0.00 0.00 0.00 60 1027.0
20260502024130 55 354 2.0 3.0 0.00 0.00 0.00 59 1027.0
20260502023625 55 354 2.0 3.0 0.00 0.00 0.00 59 1027.0
20260502023125 55 354 2.0 3.0 0.00 0.00 0.00 58 1027.0
20260502022916 55 320 2.0 3.0 0.00 0.00 0.00 60 1027.0
20260502022120 55 320 2.0 3.0 0.00 0.00 0.00 59 1027.2
20260502021904 55 332 2.0 3.0 0.00 0.00 0.00 59 1027.2
20260502021115 56 339 2.0 3.0 0.00 0.00 0.00 58 1027.3
20260502020616 56 331 2.0 3.0 0.00 0.00 0.00 58 1027.2
20260502020115 56 335 2.0 3.0 0.00 0.00 0.00 58 1027.2
20260502015613 56 4 2.0 3.0 0.00 0.00 0.00 58 1027.2
20260502015112 56 4 2.0 3.0 0.00 0.00 0.00 56 1027.0
20260502014612 56 354 2.0 3.0 0.00 0.00 0.00 56 1027.0
20260502014109 56 10 2.0 3.0 0.00 0.00 0.00 55 1027.2
20260502013609 56 304 2.0 3.0 0.00 0.00 0.00 55 1027.2
20260502013108 56 303 2.0 3.0 0.00 0.00 0.00 55 1027.2
20260502012606 56 346 2.0 3.0 0.00 0.00 0.00 54 1027.0
20260502012352 56 339 2.0 3.0 0.00 0.00 0.00 52 1027.2
20260502011604 56 338 2.0 3.0 0.00 0.00 0.00 52 1027.0
20260502011114 56 337 1.0 3.0 0.00 0.00 0.00 52 1027.0
20260502010933 56 337 2.0 3.0 0.00 0.00 0.00 52 1027.0
20260502010620 56 337 2.0 3.0 0.00 0.00 0.00 52 1027.2
20260502005605 56 337 2.0 3.0 0.00 0.00 0.00 51 1027.2
20260502005105 56 343 2.0 3.0 0.00 0.00 0.00 51 1027.0
20260502004607 56 330 2.0 3.0 0.00 0.00 0.00 51 1027.2
20260502004110 56 330 2.0 3.0 0.00 0.00 0.00 52 1027.2
20260502003610 56 330 2.0 3.0 0.00 0.00 0.00 52 1027.2
20260502003106 56 330 2.0 3.0 0.00 0.00 0.00 52 1027.2
20260502002608 56 330 2.0 3.0 0.00 0.00 0.00 52 1027.3
20260502002106 56 328 2.0 3.0 0.00 0.00 0.00 51 1027.3
20260502001606 56 328 2.0 3.0 0.00 0.00 0.00 52 1027.3
20260502001106 55 328 2.0 3.0 0.00 0.00 0.00 52 1027.3
20260502000621 56 331 1.0 3.0 0.00 0.00 0.00 52 1027.4
20260502000113 56 330 1.0 3.0 0.00 0.00 0.00 52 1027.4
20260501235846 56 329 1.0 2.0 0.00 0.00 0.00 51 1027.4
20260501235340 56 328 1.0 2.0 0.00 0.00 0.00 50 1027.4
20260501234607 56 328 1.0 2.0 0.00 0.00 0.00 51 1027.3
20260501234107 56 328 2.0 3.0 0.00 0.00 0.00 50 1027.3
20260501233606 56 328 2.0 3.0 0.00 0.00 0.00 49 1027.2
20260501233344 56 330 1.0 3.0 0.00 0.00 0.00 50 1027.3
20260501232606 56 330 1.0 3.0 0.00 0.00 0.00 50 1027.2
20260501232107 56 329 1.0 2.0 0.00 0.00 0.00 48 1027.3
20260501231848 57 329 1.0 3.0 0.00 0.00 0.00 48 1027.3
20260501231106 57 329 2.0 3.0 0.00 0.00 0.00 49 1027.2
20260501230606 57 329 2.0 3.0 0.00 0.00 0.00 50 1027.2
20260501230106 57 329 1.0 2.0 0.00 0.00 0.00 48 1027.2
20260501225606 57 329 1.0 2.0 0.00 0.00 0.00 48 1027.2
20260501225106 57 329 1.0 2.0 0.00 0.00 0.00 50 1027.2
20260501224610 57 329 1.0 3.0 0.00 0.00 0.00 50 1027.0
20260501224106 57 329 1.0 3.0 0.00 0.00 0.00 49 1027.0
20260501223606 57 322 1.0 3.0 0.00 0.00 0.00 46 1027.0
20260501223105 57 323 1.0 2.0 0.00 0.00 0.00 48 1027.0
20260501222605 57 323 1.0 2.0 0.00 0.00 0.00 48 1027.0
20260501222105 57 322 1.0 2.0 0.00 0.00 0.00 49 1027.0
20260501221906 58 323 1.0 2.0 0.00 0.00 0.00 50 1026.8
20260501221857 58 322 1.0 2.0 0.00 0.00 0.00 48 1026.9
20260501220604 58 322 1.0 2.0 0.00 0.00 0.00 49 1026.9
20260501220151 58 322 2.0 2.0 0.00 0.00 0.00 49 1026.8
20260501220139 58 322 1.0 2.0 0.00 0.00 0.00 48 1026.8
20260501215103 58 333 1.0 2.0 0.00 0.00 0.00 50 1026.8
20260501214603 58 333 1.0 2.0 0.00 0.00 0.00 50 1026.8
20260501214101 58 333 2.0 3.0 0.00 0.00 0.00 49 1026.7
20260501213601 58 333 2.0 3.0 0.00 0.00 0.00 48 1026.7
20260501213055 58 333 1.0 2.0 0.00 0.00 0.00 47 1026.7
20260501212556 58 333 2.0 3.0 0.00 0.00 0.00 48 1026.7
20260501212052 58 332 1.0 3.0 0.00 0.00 0.00 47 1026.6
20260501211553 58 8 1.0 2.0 0.00 0.00 0.00 43 1026.6
20260501211051 58 348 2.0 3.0 0.00 0.00 0.00 47 1026.6
20260501210850 58 348 2.0 4.0 0.00 0.00 0.00 49 1026.5
20260501210100 58 14 2.0 7.0 0.00 0.00 0.00 51 1026.5
20260501205548 58 263 1.0 7.0 0.00 0.00 0.00 51 1026.5
20260501205043 58 320 1.0 3.0 0.00 0.00 0.00 51 1026.5
20260501204543 58 290 1.0 3.0 0.00 0.00 0.00 50 1026.4
20260501204040 58 20 1.0 6.0 0.00 0.00 0.00 52 1026.4
20260501203541 58 23 1.0 6.0 0.00 0.00 0.00 51 1026.4
20260501203040 58 23 1.0 2.0 0.00 0.00 0.00 52 1026.4
20260501202542 58 23 1.0 2.0 0.00 0.00 0.00 51 1026.4
20260501202038 58 23 1.0 3.0 0.00 0.00 0.00 52 1026.4
20260501201542 58 23 1.0 3.0 0.00 0.00 0.00 50 1026.3
20260501201340 58 23 1.0 3.0 0.00 0.00 0.00 50 1026.3
20260501200538 58 23 1.0 3.0 0.00 0.00 0.00 51 1026.2
20260501200036 59 354 1.0 3.0 0.00 0.00 0.00 51 1026.2
20260501195810 59 354 1.0 3.0 0.00 0.00 0.00 50 1026.2
20260501195034 59 354 2.0 3.0 0.00 0.00 0.00 51 1026.1
20260501194534 59 312 2.0 3.0 0.00 0.00 0.00 50 1026.0
20260501194034 60 312 1.0 3.0 0.00 0.00 0.00 50 1026.0
20260501193538 60 312 2.0 4.0 0.00 0.00 0.00 48 1025.9
20260501193034 60 272 2.0 4.0 0.00 0.00 0.00 48 1025.8
20260501192534 60 332 2.0 4.0 0.00 0.00 0.00 46 1025.8
20260501192035 60 310 2.0 3.0 0.00 0.00 0.00 49 1025.7
20260501191535 60 4 1.0 3.0 0.00 0.00 0.00 47 1025.8
20260501191035 61 324 1.0 3.0 0.00 0.00 0.00 46 1025.7
20260501190815 61 323 2.0 3.0 0.00 0.00 0.00 45 1025.6
20260501190033 61 308 2.0 3.0 0.00 0.00 0.00 46 1025.6
20260501185534 61 349 2.0 3.0 0.00 0.00 0.00 46 1025.5
20260501185032 61 314 2.0 4.0 0.00 0.00 0.00 43 1025.5
20260501184533 61 342 2.0 4.0 0.00 0.00 0.00 43 1025.4
20260501184034 61 330 2.0 3.0 0.00 0.00 0.00 43 1025.4
20260501183821 61 324 2.0 4.0 0.00 0.00 0.00 43 1025.3
20260501183032 62 316 2.0 4.0 0.00 0.00 0.00 44 1025.3
20260501182533 62 318 3.0 4.0 0.00 0.00 0.00 43 1025.2
20260501182045 62 337 3.0 4.0 0.00 0.00 0.00 42 1025.2
20260501181535 62 330 2.0 4.0 0.00 0.00 0.00 42 1025.2
20260501181314 62 291 2.0 4.0 0.00 0.00 0.00 42 1025.2
20260501180545 62 281 2.0 5.0 0.00 0.00 0.00 41 1025.1
20260501180046 62 308 2.0 5.0 0.00 0.00 0.00 42 1025.1
20260501175537 62 310 2.0 3.0 0.00 0.00 0.00 45 1025.1
20260501175326 63 308 2.0 4.0 0.00 0.00 0.00 40 1025.1
20260501174539 63 306 2.0 4.0 0.00 0.00 0.00 42 1025.1
20260501174036 63 305 2.0 4.0 0.00 0.00 0.00 44 1025.0